Regional Weather Roundup
Issued by NWS

Home | Current Version | Previous Version | Graphics & Text | Print | Product List | Glossary On
Versions: 1 2 3 4 5 6 7 8 9 10 11 12 13 14 15 16 17 18 19 20 21 22 23 24 25 26 27 28 29 30 31 32 33 34 35 36 37 38 39 40 41 42 43 44 45 46 47 48 49 50
000
ASUS45 KBOU 242007
RWRCO

WEATHER ROUNDUP FOR COLORADO
NATIONAL WEATHER SERVICE DENVER/BOULDER CO
200 PM MDT FRI APR 24 2015

NOTE: "FAIR" INDICATES FEW OR NO CLOUDS BELOW 12000 FEET WITH NO
SIGNIFICANT WEATHER AND/OR OBSTRUCTIONS TO VISIBILITY.

COZ001>005-013-030-031-242100-
...NORTHWEST COLORADO...

CITY           SKY/WX    TMP DP  RH WIND       PRES   REMARKS
CRAIG          PTSUNNY   60  27  28 SW9G16    29.71F
HAYDEN         PTSUNNY   57  23  26 SW8       29.73F
MEEKER         CLOUDY    50  32  50 S15       29.77S
MOUNT WERNER   NOT AVBL
STEAMBOAT SPGS CLOUDY    51  29  41 NW12      29.75R
WALDEN         PTSUNNY   50  23  34 N10G22    29.77S
$$

COZ006>008-011-242100-
...WEST CENTRAL VALLEYS...

CITY           SKY/WX    TMP DP  RH WIND       PRES   REMARKS
GRAND JUNCTION CLOUDY    58  33  39 W9        29.73S
MONTROSE       CLOUDY    55  28  35 SW17G30   29.80F
EAGLE          CLOUDY    54  27  35 SW14G24   29.80R
RIFLE          CLOUDY    54  31  41 NW29G43   29.76R
DELTA          CLOUDY    65  21  18 W9        29.74F
NUCLA          CLOUDY    59  23  25 SW10      29.84F
$$

COZ017>023-064>068-242100-
...SOUTHWEST COLORADO...

CITY           SKY/WX    TMP DP  RH WIND       PRES   REMARKS
DURANGO        LGT RAIN  45  33  63 N14       29.88S
CORTEZ         CLOUDY    58  22  24 W15G24    29.83F
PAGOSA SPRINGS CLOUDY    50  18  27 SW16      29.88S THUNDER
TELLURIDE      CLOUDY    37  25  62 CALM      29.95R THUNDER
WOLF CREEK PAS NOT AVBL
$$

COZ009-010-012-014-032>034-037-058>063-242100-
...CENTRAL COLORADO...

CITY           SKY/WX    TMP DP  RH WIND       PRES   REMARKS
ASPEN          CLOUDY    41  27  57 W15G25    29.86R
BUENA VISTA    CLOUDY    50  19  29 W17G26    29.78R
COPPER MTN     CLOUDY    34  19  55 W10G18    29.92F WCI  26
BERTHOUD PASS  HAZE      27  18  69 N8G25     29.92F VSB 3/4 WCI  18
COTTONWOOD PAS CLOUDY    43  16  33 W20G31    29.84F
GUNNISON       CLOUDY    48  21  34 SW24G31   29.83F
KREMMLING      CLOUDY    50  23  34 SW10G21   29.79S
LEADVILLE      CLOUDY    38  16  40 W7        29.84F THUNDER
MONARCH PASS   CLOUDY    30  19  64 NW7G23    30.03R WCI  23
SALIDA         CLOUDY    50  27  40 W18G30    29.84S
SUNLIGHT       CLOUDY    36  23  60 CALM      29.93S
WILKERSON PASS CLOUDY    37  14  38 CALM      29.90S
$$

COZ069>075-242100-
...SAN LUIS VALLEY/SANGRE DE CRISTO MOUNTAINS...

CITY           SKY/WX    TMP DP  RH WIND       PRES   REMARKS
ALAMOSA        CLOUDY    50  19  29 W18G25    29.79R
LA VETA PASS   CLOUDY    43  23  45 S8G21     29.83F
SAGUACHE       CLOUDY    45  27  49 W17G33    29.82R
$$

COZ035-036-038>040-242100-
...NORTHERN COLORADO FRONT RANGE...

CITY           SKY/WX    TMP DP  RH WIND       PRES   REMARKS
DENVER INTL AP PTSUNNY   66  27  23 VRB5      29.64F
DMNS CITY PARK   N/A     62  20  20 N3G10     29.64S
AURORA         PTSUNNY   64  26  23 VRB3      29.66F
FRONT RANGE AP PTSUNNY   66  28  24 E7        29.66F
ERIE MUNI ARPT PTSUNNY   64  26  23 N20       29.64S
BOULDER MUN AP CLOUDY    59  30  33 NW17G23   29.65R
CENTENNIAL     PTSUNNY   61  25  25 NE3       29.66F
BROOMFIELD     PTSUNNY   63  25  23 S6        29.66F
FORT COLLINS   PTSUNNY   63  27  25 NW5       29.67S
LONGMONT       DRIZZLE   60  32  35 NW10      29.68R
$$

COZ041-046-047-076>085-087-088-242100-
...PIKES PEAK/PALMER DIVIDE AND SOUTHERN FOOTHILLS...

CITY           SKY/WX    TMP DP  RH WIND       PRES   REMARKS
COLO. SPRINGS  CLOUDY    61  23  23 N15       29.68S
A. F. ACADEMY  CLOUDY    56  22  27 NW15      29.70R
ELLICOTT       CLOUDY   N/A N/A N/A E9        29.64F
FALCON         CLOUDY    56  24  29 SW15G21   29.72R
FORT CARSON    MOSUNNY   62  26  25 SE10      29.65F
LIMON          PTSUNNY   64  25  22 N12G17    29.63F
MONUMENT HILL  PTSUNNY   54  21  28 CALM      29.71S
TRINIDAD       PTSUNNY   65  19  17 W9        29.64F
$$

COZ042>045-048>051-090-091-242100-
...NORTHEAST COLORADO...

CITY           SKY/WX    TMP DP  RH WIND       PRES   REMARKS
GREELEY ARPT   PTSUNNY   66  28  24 NW14      29.64S
AKRON          PTSUNNY   68  33  27 VRB3      29.61F
BURLINGTON     PTSUNNY   65  40  39 NE14      29.58F
WRAY           PTSUNNY   73  44  34 NE12G17   29.58F
STERLING       PTSUNNY   70  34  26 NW8       29.57F
HOLYOKE        MOSUNNY   68  41  37 N7        29.59F
FORT MORGAN    PTSUNNY   71  27  19 NW8       29.61F
$$

COZ086-089-092>099-242100-
...SOUTHEAST COLORADO...

CITY           SKY/WX    TMP DP  RH WIND       PRES   REMARKS
PUEBLO         PTSUNNY   71  24  17 CALM      29.59F
LA JUNTA       PTSUNNY   73  27  18 VRB3      29.57F
LAMAR          PTSUNNY   70  37  29 CALM      29.55F
SPRINGFIELD      N/A     67  34  29 S15G23    29.59F
$$


USA.gov is the U.S. government's official web portal to all federal, state and local government web resources and services.